Home > Weather > Riga > Past weeks

Flag for Latvia Weather for the Past 2 Weeks in Riga, Latvia

Now
43 °F

Mostly cloudy.


Feels Like: 36 °F
Forecast: 36 / 42 °F
Wind: 14 mph from South

Location: Riga Airport

Current Time: Feb 9, 2016 at 6:03:40 PM

Latest Report: Feb 9, 2016 at 5:20 PM


Visibility: N/A

Pressure: 29.33 "Hg

Humidity: 87%

Dew point: 39 °F

Location of RigaLocation

Historic Weather in Riga — Graph

°F

Riga Temperature Yesterday

Maximum temperature yesterday: 39 °F (at 1:20 PM)
Minimum temperature yesterday: 34 °F (at 5:20 AM)
Average temperature yesterday: 37 °F

High & Low Weather Summary for the Past Weeks

 TemperatureHumidityPressure
High46 °F (Jan 28, 6:20 AM)100% (Jan 25, 5:50 PM)30.12 "Hg (Jan 25, 5:50 PM)
Low28 °F (Feb 4, 7:20 AM)61% (Feb 5, 2:20 PM)29.09 "Hg (Feb 3, 8:20 AM)
Average38 °F89%29.58 "Hg
* Reported Jan 25 4:20 PM — Feb 9 4:20 PM, Riga, Weather by CustomWeather, © 2016

Note: Actual official high and low records may vary slightly from our data, if they occured in-between our weather recording intervals... More about our weather records

Advertising

Riga Weather History for the Previous 24 Hours

 ConditionsComfort  
Time TempWeatherWind HumidityBarometerVisibility
4:20 PM
Tue, Feb 9
43 °FMostly cloudy.15 mph87%29.33 "HgN/A
3:20 PM43 °FLight rain. Mostly cloudy.13 mph93%29.33 "HgN/A
2:50 PM43 °FLight rain. Mostly cloudy.13 mph93%29.33 "Hg6 mi
2:20 PM45 °FLight rain. Mostly cloudy.14 mph81%29.30 "Hg6 mi
1:50 PM45 °FMostly cloudy.14 mph81%29.30 "HgN/A
1:20 PM45 °FMostly cloudy.17 mph81%29.30 "HgN/A
12:20 PM45 °FMostly cloudy.15 mph87%29.33 "HgN/A
11:50 AM45 °FMostly cloudy.15 mph87%29.33 "HgN/A
11:20 AM45 °FScattered clouds.14 mph87%29.33 "HgN/A
10:50 AM45 °FPartly sunny.15 mph87%29.33 "HgN/A
10:20 AM43 °FPartly sunny.16 mph87%29.33 "HgN/A
9:50 AM41 °FScattered clouds.15 mph93%29.33 "HgN/A
9:20 AM41 °FBroken clouds.14 mph93%29.33 "HgN/A
8:50 AM41 °FScattered clouds.15 mph93%29.33 "HgN/A
8:20 AM41 °FScattered clouds.16 mph93%29.33 "HgN/A
7:50 AM41 °FPartly cloudy.16 mph93%29.30 "HgN/A
7:20 AM41 °FPassing clouds.16 mph93%29.33 "HgN/A
6:50 AM41 °FLight rain. Mostly cloudy.18 mph93%29.33 "HgN/A
6:20 AM41 °FLight rain. Mostly cloudy.17 mph93%29.30 "HgN/A
5:20 AM41 °FMostly cloudy.18 mph93%29.33 "HgN/A
4:50 AM41 °FMostly cloudy.17 mph93%29.33 "HgN/A
4:20 AM41 °FLight rain. Mostly cloudy.15 mph93%29.33 "HgN/A
3:20 AM41 °FPassing clouds.16 mph87%29.36 "HgN/A
2:50 AM41 °FPassing clouds.17 mph87%29.36 "HgN/A
2:20 AM41 °FOvercast.16 mph87%29.39 "HgN/A
1:50 AM41 °FOvercast.14 mph87%29.39 "HgN/A
1:20 AM41 °FOvercast.16 mph81%29.39 "HgN/A
12:20 AM41 °FPassing clouds.16 mph81%29.42 "HgN/A
11:50 PM
Mon, Feb 8
39 °FPassing clouds.15 mph87%29.45 "HgN/A
11:20 PM39 °FPassing clouds.16 mph87%29.45 "HgN/A
10:50 PM39 °FPassing clouds.17 mph87%29.47 "HgN/A
10:20 PM39 °FPassing clouds.16 mph87%29.47 "HgN/A
9:50 PM39 °FPassing clouds.17 mph87%29.47 "HgN/A
9:20 PM39 °FPassing clouds.17 mph93%29.50 "HgN/A
8:50 PM39 °FOvercast.18 mph93%29.50 "HgN/A
8:20 PM39 °FPassing clouds.15 mph93%29.50 "HgN/A
7:50 PM37 °FPassing clouds.16 mph93%29.53 "HgN/A
7:20 PM39 °FPassing clouds.17 mph87%29.53 "HgN/A
6:50 PM37 °FPassing clouds.16 mph93%29.53 "Hg6 mi
6:20 PM39 °FPassing clouds.16 mph93%29.53 "HgN/A
Weather by CustomWeather, © 2016

See weather overviewHow to use our weather pages